Home   Weather   Nizhny Novgorod   Past weeks

Flag for Russia Past Weather in Nizhny Novgorod, Russia — Yesterday and Last 2 Weeks

Now
21 °F

Overcast.


Feels Like: 14 °F
Forecast: 12 / 33 °F
Wind: 6 mph from West

Location: Nizhny Novgorod/Strigino

Current Time: Jan 23, 2017 at 1:59:28 pm

Latest Report: Jan 23, 2017 at 1:00 pm


Visibility: N/A

Pressure: 29.86 "Hg

Humidity: 80%

Dew Point: 16 °F

Location of Nizhny NovgorodLocation

Past Weather in Nizhny Novgorod — Graph

°F

Nizhny Novgorod Temperature Yesterday

Maximum temperature yesterday: 21 °F (at 2:00 pm)
Minimum temperature yesterday: 16 °F (at 6:30 am)
Average temperature yesterday: 18 °F

High & Low Weather Summary for the Past Weeks

 TemperatureHumidityPressure
High34 °F (Jan 20, 12:00 pm)100% (Jan 11, 6:00 am)30.42 "Hg (Jan 11, 6:00 am)
Low-33 °F (Jan 9, 6:00 am)55% (Jan 20, 1:30 pm)29.59 "Hg (Jan 20, 7:30 am)
Average16 °F82%30.07 "Hg
* Reported Jan 8 1:00 pm — Jan 23 1:00 pm, Nizhny Novgorod, Weather by CustomWeather, © 2017

Note: Actual official high and low records may vary slightly from our data, if they occured in-between our weather recording intervals... More about our weather records

Advertising

Nizhny Novgorod Weather History for the Previous 24 Hours

Scroll right to see more
 ConditionsComfort  
Time TempWeatherWind HumidityBarometerVisibility
1:00 pm
Mon, Jan 23
21 °FOvercast.6 mph80%29.86 "HgN/A
12:30 pm21 °FOvercast.3 mph80%29.89 "HgN/A
12:00 pm19 °FLight snow. Overcast.6 mph79%29.89 "Hg5 mi
11:30 am19 °FLight snow. Partly sunny.6 mph79%29.89 "HgN/A
11:00 am18 °FPartly sunny.8 mph86%29.89 "HgN/A
10:30 am18 °FPartly sunny.8 mph86%29.89 "HgN/A
10:00 am18 °FPartly sunny.6 mph86%29.89 "HgN/A
9:30 am18 °FScattered clouds.6 mph79%29.89 "HgN/A
9:00 am18 °FPartly sunny.3 mph79%29.89 "HgN/A
8:30 am18 °FPartly sunny.3 mph79%29.89 "HgN/A
8:00 am19 °FLight snow. Overcast.3 mph79%29.89 "HgN/A
7:30 am19 °FLight snow. Overcast.3 mph79%29.89 "HgN/A
7:00 am19 °FLight snow. Overcast.3 mph73%29.89 "HgN/A
6:30 am19 °FOvercast.6 mph79%29.89 "HgN/A
6:00 am19 °FLight snow. Overcast.6 mph73%29.86 "HgN/A
5:30 am21 °FLight snow. Overcast.3 mph68%29.86 "HgN/A
5:00 am21 °FLight snow. Overcast.6 mph68%29.86 "HgN/A
4:30 am21 °FLight snow. Overcast.6 mph68%29.86 "HgN/A
4:00 am21 °FLight snow. Overcast.6 mph74%29.86 "HgN/A
3:30 am21 °FLight snow. Overcast.1 mph80%29.86 "HgN/A
3:00 am21 °FLight snow. Overcast.6 mph80%29.86 "HgN/A
2:30 am21 °FLight snow. Overcast.6 mph80%29.83 "HgN/A
2:00 am21 °FLight snow. Overcast.3 mph80%29.83 "HgN/A
1:30 am21 °FLight snow. Overcast.6 mph80%29.83 "HgN/A
1:00 am21 °FLight snow. Overcast.6 mph80%29.83 "HgN/A
12:30 am21 °FLight snow. Overcast.3 mph80%29.80 "HgN/A
12:00 am21 °FOvercast.3 mph80%29.80 "HgN/A
11:30 pm
Sun, Jan 22
19 °FOvercast.3 mph79%29.80 "HgN/A
11:00 pm19 °FOvercast.3 mph79%29.80 "HgN/A
10:30 pm19 °FLight snow. Overcast.3 mph79%29.77 "HgN/A
10:00 pm18 °FLight snow. Overcast.3 mph86%29.77 "HgN/A
9:30 pm18 °FLight snow. Overcast.3 mph86%29.77 "Hg5 mi
9:00 pm16 °FLight snow. Overcast.3 mph86%29.74 "Hg4 mi
8:30 pm16 °FPassing clouds.1 mph86%29.74 "HgN/A
8:00 pm16 °FPassing clouds.3 mph79%29.74 "HgN/A
7:30 pm16 °FPassing clouds.3 mph79%29.74 "HgN/A
7:00 pm16 °FPassing clouds.3 mph79%29.74 "HgN/A
6:30 pm18 °FPassing clouds.6 mph73%29.74 "HgN/A
6:00 pm18 °FPassing clouds.6 mph79%29.74 "HgN/A
5:30 pm18 °FPassing clouds.6 mph73%29.74 "HgN/A
5:00 pm18 °FPassing clouds.6 mph73%29.74 "HgN/A
4:30 pm19 °FPassing clouds.3 mph73%29.74 "HgN/A
4:00 pm19 °FPartly sunny.6 mph73%29.74 "HgN/A
3:30 pm19 °FPartly sunny.8 mph73%29.74 "HgN/A
3:00 pm19 °FPartly sunny.8 mph73%29.74 "HgN/A
2:30 pm21 °FPartly sunny.10 mph74%29.77 "HgN/A
2:00 pm21 °FPartly sunny.10 mph74%29.77 "HgN/A
1:30 pm19 °FPartly sunny.10 mph73%29.77 "HgN/A
1:00 pm19 °FPartly sunny.6 mph73%29.77 "HgN/A
Weather by CustomWeather, © 2017

See weather overviewHow to use our weather pages